| time (UTC) | temp F | wind direction | speed MPH | gust MPH | rain 1hr in | rain 24hr in | rain mn in | humidity % | barometer mb |
| 20260507114603 | 53 | 360 | 14.0 | 18.0 | 0.00 | 0.00 | 0.00 | 71 | 1019.2 |
| 20260507113044 | 54 | 360 | 16.0 | 23.0 | 0.00 | 0.00 | 0.00 | 69 | 1019.1 |
| 20260507111544 | 54 | 360 | 17.0 | 24.0 | 0.00 | 0.00 | 0.00 | 69 | 1018.7 |
| 20260507110043 | 54 | 360 | 16.0 | 25.0 | 0.00 | 0.00 | 0.00 | 67 | 1018.5 |
| 20260507104543 | 54 | 360 | 19.0 | 25.0 | 0.00 | 0.00 | 0.00 | 66 | 1018.3 |
| 20260507103038 | 55 | 360 | 19.0 | 26.0 | 0.00 | 0.00 | 0.00 | 66 | 1018.3 |
| 20260507101542 | 55 | 360 | 16.0 | 23.0 | 0.00 | 0.00 | 0.00 | 66 | 1018.2 |
| 20260507100037 | 55 | 360 | 17.0 | 24.0 | 0.00 | 0.00 | 0.00 | 66 | 1018.1 |
| 20260507094544 | 54 | 360 | 13.0 | 17.0 | 0.00 | 0.00 | 0.00 | 68 | 1018.2 |
| 20260507093047 | 52 | 360 | 7.0 | 12.0 | 0.00 | 0.00 | 0.00 | 64 | 1018.1 |
| 20260507091545 | 52 | 360 | 8.0 | 16.0 | 0.00 | 0.00 | 0.00 | 62 | 1017.9 |
| 20260507090040 | 53 | 360 | 7.0 | 20.0 | 0.00 | 0.00 | 0.00 | 61 | 1017.9 |
| 20260507084543 | 53 | 360 | 12.0 | 23.0 | 0.00 | 0.00 | 0.00 | 59 | 1017.7 |
| 20260507083047 | 55 | 360 | 15.0 | 18.0 | 0.00 | 0.00 | 0.00 | 55 | 1017.6 |
| 20260507081540 | 58 | 360 | 9.0 | 13.0 | 0.00 | 0.00 | 0.00 | 46 | 1017.3 |
| 20260507080045 | 61 | 360 | 9.0 | 12.0 | 0.00 | 0.00 | 0.00 | 45 | 1017.2 |
| 20260507074542 | 65 | 360 | 2.0 | 9.0 | 0.00 | 0.00 | 0.00 | 50 | 1017.1 |
| 20260507073046 | 67 | 360 | 4.0 | 9.0 | 0.00 | 0.00 | 0.00 | 47 | 1016.7 |
| 20260507071541 | 67 | 360 | 4.0 | 15.0 | 0.00 | 0.00 | 0.00 | 44 | 1017.0 |
| 20260507070039 | 67 | 360 | 6.0 | 14.0 | 0.00 | 0.00 | 0.00 | 36 | 1016.3 |
| 20260507064538 | 66 | 360 | 11.0 | 16.0 | 0.00 | 0.00 | 0.00 | 28 | 1015.8 |
| 20260507063037 | 68 | 360 | 5.0 | 8.0 | 0.00 | 0.00 | 0.00 | 24 | 1015.4 |
| 20260507061544 | 66 | 360 | 7.0 | 10.0 | 0.00 | 0.00 | 0.00 | 26 | 1015.4 |
| 20260507060047 | 66 | 360 | 5.0 | 6.0 | 0.00 | 0.00 | 0.00 | 27 | 1015.2 |
| 20260507054541 | 68 | 360 | 4.0 | 6.0 | 0.00 | 0.00 | 0.00 | 25 | 1015.0 |
| 20260507053042 | 65 | 360 | 4.0 | 8.0 | 0.00 | 0.00 | 0.00 | 27 | 1015.0 |
| 20260507051538 | 71 | 360 | 4.0 | 6.0 | 0.00 | 0.00 | 0.00 | 20 | 1015.0 |
| 20260507050037 | 72 | 360 | 3.0 | 4.0 | 0.00 | 0.00 | 0.00 | 20 | 1015.1 |
| 20260507044635 | 72 | 360 | 3.0 | 4.0 | 0.00 | 0.00 | 0.00 | 20 | 1015.1 |
| 20260507044538 | 72 | 360 | 3.0 | 4.0 | 0.00 | 0.00 | 0.00 | 20 | 1015.1 |
| 20260507043039 | 72 | 360 | 3.0 | 4.0 | 0.00 | 0.00 | 0.00 | 20 | 1014.9 |
| 20260507041538 | 72 | 360 | 2.0 | 4.0 | 0.00 | 0.00 | 0.00 | 21 | 1014.6 |
| 20260507040041 | 72 | 360 | 2.0 | 4.0 | 0.00 | 0.00 | 0.00 | 21 | 1014.6 |
| 20260507034538 | 73 | 360 | 3.0 | 5.0 | 0.00 | 0.00 | 0.00 | 22 | 1014.5 |
| 20260507033049 | 72 | 360 | 4.0 | 6.0 | 0.00 | 0.00 | 0.00 | 22 | 1014.3 |
| 20260507031540 | 71 | 360 | 4.0 | 9.0 | 0.00 | 0.00 | 0.00 | 24 | 1014.1 |
| 20260507030038 | 70 | 360 | 8.0 | 11.0 | 0.00 | 0.00 | 0.00 | 24 | 1013.9 |
| 20260507024537 | 72 | 360 | 5.0 | 10.0 | 0.00 | 0.00 | 0.00 | 23 | 1013.5 |
| 20260507023049 | 73 | 360 | 7.0 | 10.0 | 0.00 | 0.00 | 0.00 | 21 | 1013.1 |
| 20260507021546 | 74 | 360 | 8.0 | 12.0 | 0.00 | 0.00 | 0.00 | 20 | 1012.9 |
| 20260507020104 | 75 | 360 | 10.0 | 13.0 | 0.00 | 0.00 | 0.00 | 19 | 1012.8 |
| 20260507014552 | 76 | 360 | 11.0 | 14.0 | 0.00 | 0.00 | 0.00 | 18 | 1012.7 |
| 20260507013052 | 78 | 360 | 14.0 | 18.0 | 0.00 | 0.00 | 0.00 | 16 | 1012.3 |
| 20260507011544 | 79 | 360 | 12.0 | 19.0 | 0.00 | 0.00 | 0.00 | 17 | 1012.2 |
| 20260507010048 | 79 | 360 | 15.0 | 22.0 | 0.00 | 0.00 | 0.00 | 16 | 1012.5 |
| 20260507004552 | 80 | 360 | 13.0 | 23.0 | 0.00 | 0.00 | 0.00 | 16 | 1012.4 |
| 20260507003047 | 80 | 360 | 20.0 | 25.0 | 0.00 | 0.00 | 0.00 | 16 | 1012.2 |
| 20260507001547 | 80 | 360 | 14.0 | 24.0 | 0.00 | 0.00 | 0.00 | 16 | 1012.1 |
| 20260507000045 | 80 | 360 | 17.0 | 25.0 | 0.00 | 0.00 | 0.00 | 16 | 1012.0 |
| 20260506234549 | 80 | 360 | 13.0 | 28.0 | 0.00 | 0.00 | 0.00 | 16 | 1011.8 |
| 20260506233058 | 80 | 360 | 21.0 | 29.0 | 0.00 | 0.00 | 0.00 | 15 | 1011.9 |
| 20260506231542 | 81 | 360 | 23.0 | 30.0 | 0.00 | 0.00 | 0.00 | 15 | 1011.7 |
| 20260506230047 | 80 | 360 | 17.0 | 30.0 | 0.00 | 0.00 | 0.00 | 15 | 1011.6 |
| 20260506224538 | 81 | 360 | 19.0 | 28.0 | 0.00 | 0.00 | 0.00 | 16 | 1011.5 |
| 20260506223046 | 81 | 360 | 20.0 | 29.0 | 0.00 | 0.00 | 0.00 | 17 | 1011.3 |
| 20260506221549 | 80 | 360 | 22.0 | 28.0 | 0.00 | 0.00 | 0.00 | 17 | 1011.6 |
| 20260506220046 | 80 | 360 | 18.0 | 26.0 | 0.00 | 0.00 | 0.00 | 17 | 1011.5 |
| 20260506214544 | 80 | 360 | 23.0 | 29.0 | 0.00 | 0.00 | 0.00 | 17 | 1011.6 |
| 20260506213051 | 80 | 360 | 14.0 | 25.0 | 0.00 | 0.00 | 0.00 | 18 | 1011.9 |
| 20260506211537 | 80 | 360 | 19.0 | 28.0 | 0.00 | 0.00 | 0.00 | 17 | 1011.9 |
| 20260506210045 | 80 | 360 | 16.0 | 27.0 | 0.00 | 0.00 | 0.00 | 18 | 1012.3 |
| 20260506204545 | 78 | 360 | 12.0 | 27.0 | 0.00 | 0.00 | 0.00 | 19 | 1012.3 |
| 20260506203036 | 79 | 244 | 14.0 | 26.0 | 0.00 | 0.00 | 0.00 | 19 | 1012.6 |
| 20260506201543 | 78 | 360 | 13.0 | 20.0 | 0.00 | 0.00 | 0.00 | 21 | 1012.5 |
| 20260506200039 | 78 | 360 | 12.0 | 24.0 | 0.00 | 0.00 | 0.00 | 23 | 1012.7 |
| 20260506194538 | 78 | 360 | 9.0 | 17.0 | 0.00 | 0.00 | 0.00 | 24 | 1013.0 |
| 20260506193038 | 76 | 360 | 6.0 | 24.0 | 0.00 | 0.00 | 0.00 | 25 | 1013.1 |
| 20260506191543 | 77 | 360 | 15.0 | 24.0 | 0.00 | 0.00 | 0.00 | 24 | 1013.3 |
| 20260506190044 | 76 | 360 | 10.0 | 16.0 | 0.00 | 0.00 | 0.00 | 25 | 1013.6 |
| 20260506184550 | 75 | 360 | 10.0 | 24.0 | 0.00 | 0.00 | 0.00 | 25 | 1013.9 |
| 20260506183051 | 75 | 360 | 11.0 | 20.0 | 0.00 | 0.00 | 0.00 | 26 | 1014.0 |
| 20260506181605 | 75 | 360 | 11.0 | 18.0 | 0.00 | 0.00 | 0.00 | 26 | 1014.2 |
| 20260506180037 | 74 | 360 | 6.0 | 15.0 | 0.00 | 0.00 | 0.00 | 28 | 1014.5 |
| 20260506174543 | 75 | 360 | 9.0 | 15.0 | 0.00 | 0.00 | 0.00 | 36 | 1014.7 |
| 20260506173056 | 71 | 360 | 6.0 | 11.0 | 0.00 | 0.00 | 0.00 | 39 | 1014.9 |
| 20260506171540 | 71 | 360 | 9.0 | 15.0 | 0.00 | 0.00 | 0.00 | 41 | 1014.6 |
| 20260506170042 | 71 | 360 | 3.0 | 13.0 | 0.00 | 0.00 | 0.00 | 42 | 1014.7 |
| 20260506164539 | 71 | 360 | 9.0 | 14.0 | 0.00 | 0.00 | 0.00 | 42 | 1014.6 |
| 20260506163039 | 74 | 360 | 10.0 | 17.0 | 0.00 | 0.00 | 0.00 | 34 | 1014.6 |
| 20260506161546 | 72 | 360 | 8.0 | 15.0 | 0.00 | 0.00 | 0.00 | 29 | 1014.6 |
| 20260506160051 | 72 | 360 | 11.0 | 15.0 | 0.00 | 0.00 | 0.00 | 28 | 1014.3 |
| 20260506154547 | 71 | 360 | 9.0 | 14.0 | 0.00 | 0.00 | 0.00 | 31 | 1014.2 |
| 20260506153055 | 70 | 360 | 7.0 | 14.0 | 0.00 | 0.00 | 0.00 | 36 | 1014.1 |
| 20260506151543 | 69 | 360 | 11.0 | 16.0 | 0.00 | 0.00 | 0.00 | 37 | 1013.9 |
| 20260506150044 | 70 | 360 | 15.0 | 21.0 | 0.00 | 0.00 | 0.00 | 35 | 1013.6 |
| 20260506144537 | 68 | 360 | 9.0 | 13.0 | 0.00 | 0.00 | 0.00 | 37 | 1013.6 |
| 20260506143042 | 67 | 360 | 7.0 | 11.0 | 0.00 | 0.00 | 0.00 | 39 | 1013.6 |
| 20260506141540 | 66 | 360 | 8.0 | 12.0 | 0.00 | 0.00 | 0.00 | 38 | 1013.6 |
| 20260506140038 | 66 | 360 | 9.0 | 13.0 | 0.00 | 0.00 | 0.00 | 36 | 1013.3 |
| 20260506134537 | 65 | 360 | 11.0 | 17.0 | 0.00 | 0.00 | 0.00 | 37 | 1013.1 |
| 20260506133038 | 65 | 360 | 11.0 | 15.0 | 0.00 | 0.00 | 0.00 | 36 | 1012.9 |
| 20260506131551 | 65 | 360 | 10.0 | 13.0 | 0.00 | 0.00 | 0.00 | 36 | 1012.7 |
| 20260506130043 | 65 | 360 | 8.0 | 11.0 | 0.00 | 0.00 | 0.00 | 37 | 1012.7 |
| 20260506124543 | 65 | 360 | 4.0 | 5.0 | 0.00 | 0.00 | 0.00 | 38 | 1012.4 |
| 20260506123038 | 65 | 360 | 3.0 | 6.0 | 0.00 | 0.00 | 0.00 | 35 | 1012.4 |
| 20260506121539 | 65 | 360 | 2.0 | 5.0 | 0.00 | 0.00 | 0.00 | 36 | 1012.2 |
| 20260506120040 | 64 | 360 | 5.0 | 6.0 | 0.00 | 0.00 | 0.00 | 38 | 1011.9 |